Regional Weather Roundup
Issued by NWS Little Rock, AR

Home | Current Version | Previous Version | Text Only | Print | Product List | Glossary On
Versions: 1 2 3 4 5 6 7 8 9 10 11 12 13 14 15 16 17 18 19 20 21 22 23 24 25 26 27
000
ASUS44 KLZK 070005
RWRLZK

WEATHER ROUNDUP FOR ARKANSAS
NATIONAL WEATHER SERVICE LITTLE ROCK AR
700 PM CDT FRI MAY 06 2016

NOTE: "FAIR" INDICATES FEW OR NO CLOUDS BELOW 12,000 FEET WITH NO
SIGNIFICANT WEATHER AND/OR OBSTRUCTIONS TO VISIBILITY.

ARZ001-003-010-029-070100-
NORTHWEST ARKANSAS

CITY           SKY/WX    TMP DP  RH WIND       PRES   REMARKS
FAYETTEVILLE   SUNNY     72  52  49 W6        30.02F
6HR MIN TEMP:  72; 6HR MAX TEMP:  77;

FORT SMITH     SUNNY     77  47  34 S6        30.01S
6HR MIN TEMP:  74; 6HR MAX TEMP:  80;

HARRISON       SUNNY     73  48  41 NW3       30.02F
6HR MIN TEMP:  72; 6HR MAX TEMP:  77;

BENTONVILLE    SUNNY     75  46  35 S3        30.03F
6HR MIN TEMP:  72; 6HR MAX TEMP:  79;

ROGERS         SUNNY     74  48  39 SE7       30.02F
6HR MIN TEMP:  72; 6HR MAX TEMP:  78;

SILOAM SPGS    SUNNY     73  50  43 S7        30.04S
6HR MIN TEMP:  72; 6HR MAX TEMP:  79;

HIGHFILL       SUNNY     75  51  43 S5        30.02F
6HR MIN TEMP:  73; 6HR MAX TEMP:  79;

SPRINGDALE     SUNNY     73  46  38 E5        30.04F
$$

ARZ004-005-016-070100-
NORTH CENTRAL ARKANSAS

CITY           SKY/WX    TMP DP  RH WIND       PRES   REMARKS
BATESVILLE     SUNNY     75  46  35 CALM      30.00F
6HR MIN TEMP:  72; 6HR MAX TEMP:  77;

FLIPPIN        SUNNY    N/A N/A N/A W3        29.98S
MTN HOME         N/A     74  45  35 CALM      30.00F
6HR MIN TEMP:  70; 6HR MAX TEMP:  76;

$$

ARZ040-041-070100-
WEST CENTRAL ARKANSAS

CITY           SKY/WX    TMP DP  RH WIND       PRES   REMARKS
MENA           SUNNY     77  52  41 E3        30.03S
MOUNT IDA      SUNNY     74  51  44 CALM      30.01S
6HR MIN TEMP:  72; 6HR MAX TEMP:  81;

$$

ARZ009-017-025-026-028-070100-
NORTHEAST ARKANSAS

CITY           SKY/WX    TMP DP  RH WIND       PRES   REMARKS
CORNING          N/A     75  48  38 SW5       29.99F
JONESBORO      CLEAR     74  45  35 W3        29.99F
6HR MIN TEMP:  70; 6HR MAX TEMP:  76;

NEWPORT        CLEAR     75  44  33 CALM      30.01S
6HR MIN TEMP:  72; 6HR MAX TEMP:  78;

WALNUT RIDGE   CLEAR     75  45  33 W3        29.99F
6HR MIN TEMP:  72; 6HR MAX TEMP:  77;

BLYTHEVILLE    CLEAR     74  44  34 NW6       29.99F
6HR MIN TEMP:  71; 6HR MAX TEMP:  76;

$$

ARZ022-023-033-042-044-070100-
CENTRAL ARKANSAS

CITY           SKY/WX    TMP DP  RH WIND       PRES   REMARKS
LITTLE ROCK    MOSUNNY   76  45  33 NW6       30.01F
6HR MIN TEMP:  73; 6HR MAX TEMP:  79;

N LITTLE ROCK    N/A     73  48  42 CALM      30.00F
6HR MIN TEMP:  71; 6HR MAX TEMP:  75;

JACKSONVILLE   SUNNY     75  48  39 W3        30.00F
6HR MIN TEMP:  72; 6HR MAX TEMP:  77;

SEARCY         SUNNY     75  54  46 SW5       30.02S
6HR MIN TEMP:  72; 6HR MAX TEMP:  79;

HOT SPRINGS    SUNNY     77  46  33 CALM      30.02S
6HR MIN TEMP:  72; 6HR MAX TEMP:  78;

RUSSELLVILLE   SUNNY     75  51  43 S3        30.00F
6HR MIN TEMP:  71; 6HR MAX TEMP:  77;

CLINTON        FAIR      75  52  43 CALM      30.01S
$$

ARZ036-070100-
EAST ARKANSAS

CITY           SKY/WX    TMP DP  RH WIND       PRES   REMARKS
WEST MEMPHIS   CLEAR     72  44  36 CALM      29.99F
6HR MIN TEMP:  69; 6HR MAX TEMP:  74;

$$

ARZ050-053-066-070-073-070100-
SOUTHWEST ARKANSAS

CITY           SKY/WX    TMP DP  RH WIND       PRES   REMARKS
ARKADELPHIA    FAIR      78  56  46 CALM      30.02S
6HR MIN TEMP:  73; 6HR MAX TEMP:  79;

CAMDEN         SUNNY     75  46  35 W3        30.02S
TEXARKANA      SUNNY     75  51  43 CALM      30.03S
6HR MIN TEMP:  74; 6HR MAX TEMP:  79;

EL DORADO      SUNNY     74  47  38 NE3       30.03R
6HR MIN TEMP:  73; 6HR MAX TEMP:  78;

DE QUEEN       SUNNY     76  53  44 S5        30.00S
6HR MIN TEMP:  73; 6HR MAX TEMP:  80;

$$

ARZ056-057-069-070100-
SOUTHEAST ARKANSAS

CITY           SKY/WX    TMP DP  RH WIND       PRES   REMARKS
PINE BLUFF     SUNNY     75  46  35 CALM      30.01F
6HR MIN TEMP:  70; 6HR MAX TEMP:  75;

STUTTGART      SUNNY     73  48  40 NW3       30.02F
6HR MIN TEMP:  70; 6HR MAX TEMP:  75;

MONTICELLO     CLEAR     75  44  33 CALM      30.02F
6HR MIN TEMP:  72; 6HR MAX TEMP:  78;


$$






USA.gov is the U.S. government's official web portal to all federal, state and local government web resources and services.